Weather History for KBNA - January, 2012

Change the Weather History Date:

Sunday, January 29, 2012

  Actual Average Record
Temperature  
Mean Temperature 39 °F 38 °F  
Max Temperature 55 °F 48 °F 78 °F (1911)
Min Temperature 22 °F 29 °F -1 °F (1966)
Degree Days  
Heating Degree Days 26    
Month to date heating degree days 638  
Since 1 July heating degree days 1914  
Cooling Degree Days 0    
Month to date cooling degree days 0  
Year to date cooling degree days 0  
Moisture  
Dew Point 17 °F    
Average Humidity 52    
Maximum Humidity 88    
Minimum Humidity 16    
Precipitation  
Precipitation 0.00 in 0.12 in 3.69 in (1956)
Month to date precipitation 5.13 3.48  
Year to date precipitation 5.13 3.48  
Snow  
Snow 0.00 in 0.10 in 8.50 in (1905)
Month to date snowfall 0.2 2.4  
Since 1 July snowfall 0.2 2.9  
Snow Depth 0.00 in    
Sea Level Pressure  
Sea Level Pressure 30.35 in    
Wind  
Wind Speed 7 mph (SSW)    
Max Wind Speed 21 mph    
Max Gust Speed 30 mph    
Visibility 10 miles    
Events      
T = Trace of Precipitation, MM = Missing Value Source: NWS Daily Summary

Daily Weather History Graph

Daily Weather History Graph

Search for Another Location

Airport or City:

Trip Planner

Search our weather history database for the weather conditions in past years. The results will help you decide how hot, cold, wet, or windy it might be!

Date:

Astronomy

Jan. 29, 2012 Rise Set
Actual Time 6:50 AM CST 5:09 PM CST
Civil Twilight 6:23 AM CST 5:37 PM CST
Nautical Twilight 5:52 AM CST 6:07 PM CST
Astronomical Twilight 5:21 AM CST 6:38 PM CST
Moon 9:55 AM CST (1/29) 11:39 PM CST (1/29)
Length of Visible Light 11h 14m
Length of Day
10h 19m
Waxing Crescent, 37% of the Moon is Illuminated
Jan 29
Waxing Crescent
Jan 30
First Quarter
Feb 7
Full
Feb 14
Last Quarter
Feb 21
New

Hourly Weather History & Observations

Time (CST) Temp. Windchill Dew Point Humidity Pressure Visibility Wind Dir Wind Speed Gust Speed Precip Events Conditions
12:53 AM 28.0 °F - 21.0 °F 75% 30.38 in 10.0 mi Calm Calm - N/A   Clear
1:53 AM 26.1 °F 21.9 °F 21.0 °F 81% 30.39 in 10.0 mi South 3.5 mph - N/A   Clear
2:53 AM 24.1 °F 17.0 °F 19.0 °F 81% 30.39 in 10.0 mi South 5.8 mph - N/A   Clear
3:53 AM 23.0 °F 15.8 °F 19.0 °F 85% 30.38 in 10.0 mi South 5.8 mph - N/A   Clear
4:53 AM 23.0 °F 15.8 °F 18.0 °F 81% 30.38 in 10.0 mi South 5.8 mph - N/A   Clear
5:53 AM 23.0 °F 17.0 °F 18.0 °F 81% 30.39 in 10.0 mi South 4.6 mph - N/A   Clear
6:53 AM 25.0 °F 18.1 °F 18.0 °F 75% 30.41 in 10.0 mi South 5.8 mph - N/A   Partly Cloudy
7:53 AM 30.9 °F 24.3 °F 21.9 °F 69% 30.41 in 10.0 mi South 6.9 mph - N/A   Clear
8:53 AM 37.0 °F 30.4 °F 21.9 °F 54% 30.38 in 10.0 mi South 9.2 mph - N/A   Clear
9:53 AM 43.0 °F 36.8 °F 19.0 °F 38% 30.39 in 10.0 mi SSW 11.5 mph - N/A   Clear
10:53 AM 48.0 °F - 19.0 °F 32% 30.37 in 10.0 mi SSW 8.1 mph 18.4 mph N/A   Clear
11:53 AM 50.0 °F - 16.0 °F 26% 30.35 in 10.0 mi SW 10.4 mph - N/A   Clear
12:53 PM 53.1 °F - 10.9 °F 19% 30.32 in 10.0 mi West 12.7 mph 23.0 mph N/A   Clear
1:53 PM 54.0 °F - 9.0 °F 17% 30.30 in 10.0 mi WSW 12.7 mph 25.3 mph N/A   Clear
2:53 PM 54.0 °F - 10.9 °F 18% 30.30 in 10.0 mi SW 15.0 mph 26.5 mph N/A   Clear
3:53 PM 54.0 °F - 12.0 °F 19% 30.31 in 10.0 mi WSW 8.1 mph 21.9 mph N/A   Partly Cloudy
4:53 PM 51.1 °F - 12.9 °F 22% 30.31 in 10.0 mi WSW 9.2 mph - N/A   Partly Cloudy
5:53 PM 48.9 °F - 12.0 °F 23% 30.32 in 10.0 mi SW 3.5 mph - N/A   Scattered Clouds
6:53 PM 46.0 °F 44.8 °F 14.0 °F 28% 30.32 in 10.0 mi South 3.5 mph - N/A   Clear
7:53 PM 45.0 °F - 15.1 °F 30% 30.34 in 10.0 mi Calm Calm - N/A   Clear
8:53 PM 37.0 °F 33.3 °F 21.0 °F 52% 30.33 in 10.0 mi South 4.6 mph - N/A   Clear
9:53 PM 35.1 °F 31.0 °F 21.9 °F 59% 30.34 in 10.0 mi South 4.6 mph - N/A   Scattered Clouds
10:53 PM 33.1 °F 30.0 °F 23.0 °F 66% 30.34 in 10.0 mi South 3.5 mph - N/A   Scattered Clouds
11:53 PM 32.0 °F 26.4 °F 21.9 °F 66% 30.33 in 10.0 mi South 5.8 mph - N/A   Partly Cloudy